[[{"header":{"parameterUnit":"m.s-1","parameterCategory":1,"la1":30.2991,"la2":30.254,"lo1":-89.0895,"lo2":-89.0444,"dy":0.0017,"dx":0.0017,"nx":28,"ny":28,"refTime":"2024-03-05T03:00:00:Z","depth":0,"parameterNumber":2,"parameterNumberName":"U-component_of_WINDS"},"data":[0,0,0,0,0,0,0,0,0,0,0,0,0,0,0,0,0,0,0,0,0,0,0,0,0,0,0,0,0,0,0,0,0,0,0,0,0,0,0,0,0,0,0,0,0,0,0,0,0,0,0,0,0,0,0,0,0,0,-0.5095,-0.5095,0,-0.5107,-0.5107,-0.5107,-0.5092,-0.5092,-0.5091,-0.509,-0.5103,-0.5104,-0.5105,0,0,0,0,0,0,0,0,0,0,0,0,0,-0.5059,-0.506,-0.5095,-0.5095,-0.5095,-0.5107,-0.5107,-0.5107,-0.5092,-0.5091,-0.5091,-0.509,-0.5103,-0.5104,-0.5105,0,0,0,0,0,0,0,0,0,0,0,0,0,-0.5073,-0.506,-0.5095,-0.5089,-0.5089,-0.5107,-0.5107,-0.5107,-0.5092,-0.5091,-0.5091,-0.509,-0.5103,-0.5104,-0.5105,-0.513,0,0,-0.5109,-0.511,0,0,0,0,0,0,0,0,-0.5072,-0.5074,-0.509,-0.5089,-0.5089,-0.5097,-0.5099,-0.5115,-0.5093,-0.5091,-0.509,-0.5089,-0.5102,-0.5103,-0.5107,-0.5131,-0.5131,-0.5109,-0.511,-0.5111,-0.5111,0,0,0,0,0,0,0,-0.5071,-0.5074,-0.51,-0.509,-0.5089,-0.5086,-0.5087,-0.5102,-0.5101,-0.5091,-0.509,-0.5092,-0.5102,-0.5106,-0.5108,-0.5131,-0.5109,-0.5111,-0.5111,-0.5112,-0.5176,-0.5176,0,0,0,0,0,0,-0.5071,-0.5073,-0.5099,-0.51,-0.5078,-0.5087,-0.5088,-0.5095,-0.5101,-0.5101,-0.5092,-0.5091,-0.5104,-0.5106,-0.5108,-0.5137,-0.5111,-0.5112,-0.5113,-0.5175,-0.5176,-0.5177,0,0,0,0,0,0,-0.507,-0.5073,-0.5099,-0.5086,-0.5089,-0.5089,-0.5097,-0.5096,-0.5101,-0.5102,-0.5102,-0.5097,-0.5104,-0.5106,-0.5125,-0.5137,-0.5113,-0.5114,-0.5174,-0.5175,-0.5176,-0.5196,0,0,0,0,0,0,-0.5069,-0.5073,-0.5082,-0.5087,-0.509,-0.5115,-0.5097,-0.5097,-0.5103,-0.5101,-0.5106,-0.5106,-0.5103,-0.5123,-0.5126,-0.5139,-0.5115,-0.5172,-0.5174,-0.5176,-0.5194,-0.5198,-0.5201,0,0,0,0,0,-0.5068,-0.5088,-0.5083,-0.5086,-0.5101,-0.5116,-0.5118,-0.5114,-0.5104,-0.5113,-0.5114,-0.5106,-0.5136,-0.5125,-0.5128,-0.5142,-0.5172,-0.5174,-0.5176,-0.5192,-0.5197,-0.5201,0,0,0,0,0,0,-0.5085,-0.5088,-0.5083,-0.5104,-0.511,-0.5113,-0.5125,-0.5119,-0.5127,-0.5125,-0.512,-0.5121,-0.5141,-0.5143,-0.5131,-0.5166,-0.5152,-0.5155,-0.5164,-0.5168,-0.5171,-0.517,-0.5116,0,0,0,0,0,-0.5092,-0.5103,-0.5105,-0.5124,-0.5126,-0.5125,-0.5131,-0.5128,-0.5133,-0.5136,-0.5138,-0.5144,-0.5154,-0.5161,-0.5171,-0.5194,-0.5195,-0.5205,-0.5209,-0.5212,-0.5214,-0.5226,-0.5231,-0.5183,-0.5183,-0.5183,0,0,-0.5105,-0.5108,-0.5115,-0.5127,-0.5131,-0.5143,-0.5127,-0.514,-0.5149,-0.5138,-0.5155,-0.5157,-0.5163,-0.5184,-0.5193,-0.5187,-0.5227,-0.5214,-0.5216,-0.5217,-0.5229,-0.5233,-0.5237,-0.5185,-0.5185,-0.5184,0,0,-0.5135,-0.5138,-0.5154,-0.5158,-0.5164,-0.5163,-0.5167,-0.5171,-0.5172,-0.5189,-0.5181,-0.5191,-0.521,-0.5214,-0.5219,-0.5251,-0.5244,-0.5254,-0.5272,-0.5284,-0.5288,-0.5291,-0.5302,-0.5306,-0.5257,-0.5257,-0.5257,0,-0.515,-0.5167,-0.5163,-0.5177,-0.5182,-0.5172,-0.5188,-0.5193,-0.5202,-0.5206,-0.5198,-0.5221,-0.5224,-0.5246,-0.5254,-0.5258,-0.5262,-0.5253,-0.5288,-0.5291,-0.5294,-0.5305,-0.5309,-0.5258,-0.5258,-0.5258,-0.5258,0,-0.5186,-0.5198,-0.5211,-0.5219,-0.5226,-0.5241,-0.5239,-0.5247,-0.5243,-0.5243,-0.526,-0.5264,-0.5275,-0.528,-0.5276,-0.5301,-0.5297,-0.5288,-0.5274,-0.53,-0.531,-0.5314,-0.526,-0.5259,-0.5259,-0.5259,0,0,-0.5227,-0.5233,-0.5238,-0.5241,-0.5247,-0.5257,-0.5271,-0.5281,-0.5288,-0.5294,-0.5306,-0.5322,-0.5314,-0.532,-0.5317,-0.5328,-0.5352,-0.5318,-0.5318,-0.5324,-0.538,-0.5386,-0.5391,-0.5348,-0.5349,-0.5349,-0.538,0,-0.5257,-0.5281,-0.5278,-0.5302,-0.5313,-0.5304,-0.5317,-0.5322,-0.5322,-0.5332,-0.5332,-0.5343,-0.5333,-0.5336,-0.5346,-0.5347,-0.5364,-0.5345,-0.5359,-0.536,-0.5358,-0.5396,-0.5402,-0.5431,-0.5383,-0.5384,-0.5385,0,-0.5295,-0.5302,-0.5327,-0.5331,-0.5336,-0.5347,-0.5356,-0.5365,-0.5371,-0.5371,-0.5377,-0.5372,-0.5387,-0.5373,-0.5393,-0.538,-0.5386,-0.5387,-0.5388,-0.5389,-0.5373,-0.5398,-0.544,-0.5444,-0.5391,-0.539,-0.539,0,-0.5321,-0.5338,-0.5355,-0.5359,-0.5364,-0.5372,-0.5375,-0.538,-0.5386,-0.5394,-0.5398,-0.5407,-0.5413,-0.542,-0.5418,-0.5408,-0.5439,-0.5425,-0.5439,-0.5439,-0.5446,-0.5445,-0.5489,-0.545,-0.545,-0.545,-0.545,0,-0.5355,-0.537,-0.5367,-0.5378,-0.5395,-0.5391,-0.5408,-0.541,-0.5414,-0.5425,-0.5418,-0.5428,-0.5425,-0.5435,-0.5433,-0.545,-0.5453,-0.5453,-0.5452,-0.5454,-0.5453,-0.5457,-0.5455,-0.5451,-0.545,-0.545,-0.545,0,-0.5388,-0.5386,-0.5404,-0.5408,-0.5409,-0.5421,-0.5425,-0.5434,-0.5434,-0.5448,-0.5451,-0.5451,-0.5463,-0.5461,-0.5475,-0.5474,-0.5495,-0.5492,-0.5493,-0.5492,-0.5506,-0.5505,-0.5553,-0.5559,-0.5517,-0.5517,-0.5517,0,-0.5409,-0.542,-0.5425,-0.5432,-0.5435,-0.5446,-0.5452,-0.5448,-0.5455,-0.5463,-0.5472,-0.5483,-0.5491,-0.551,-0.5512,-0.5522,-0.5519,-0.5535,-0.552,-0.5521,-0.5519,-0.5518,-0.5519,-0.5538,-0.5539,-0.5539,-0.5539,0,-0.5446,-0.5445,-0.5454,-0.5463,-0.5471,-0.5478,-0.5484,-0.549,-0.5487,-0.5495,-0.5507,-0.5514,-0.5527,-0.5538,-0.5547,-0.555,-0.5545,-0.5544,-0.5548,-0.5549,-0.5549,-0.5549,-0.55,-0.5543,-0.5542,-0.5542,-0.5542,-0.5542,-0.5474,-0.5484,-0.5489,-0.5499,-0.5503,-0.5509,-0.5519,-0.552,-0.553,-0.554,-0.5537,-0.5551,-0.5556,-0.5568,-0.5572,-0.5583,-0.5577,-0.5582,-0.5584,-0.5585,-0.5587,-0.5547,-0.5585,-0.5584,-0.5584,-0.5584,-0.5584,0,-0.5511,-0.5514,-0.5523,-0.5532,-0.554,-0.5534,-0.5541,-0.5548,-0.556,-0.5565,-0.5574,-0.5587,-0.5598,-0.56,-0.561,-0.5618,-0.5616,-0.5621,-0.5621,-0.5621,-0.5592,-0.5587,-0.5623,-0.5623,-0.5623,-0.5623,-0.5623,-0.5623,-0.5531,-0.5548,-0.5547,-0.5566,-0.5568,-0.5581,-0.5585,-0.5591,-0.5595,-0.561,-0.5619,-0.5621,-0.5625,-0.5635,-0.5645,-0.5645,-0.565,-0.5656,-0.5655,-0.5627,-0.5623,-0.562,-0.5615,-0.5657,-0.5657,-0.5684,-0.5684,-0.5684]},{"header":{"parameterUnit":"m.s-1","parameterCategory":1,"la1":30.2991,"la2":30.254,"lo1":-89.0895,"lo2":-89.0444,"dy":0.0017,"dx":0.0017,"nx":28,"ny":28,"refTime":"2024-03-05T03:00:00:Z","depth":0,"parameterNumber":3,"parameterNumberName":"V-component_of_WINDS"},"data":[0,0,0,0,0,0,0,0,0,0,0,0,0,0,0,0,0,0,0,0,0,0,0,0,0,0,0,0,0,0,0,0,0,0,0,0,0,0,0,0,0,0,0,0,0,0,0,0,0,0,0,0,0,0,0,0,0,0,0.0351,0.0351,0,0.0386,0.0386,0.0387,0.0397,0.0397,0.0397,0.0396,0.0433,0.0435,0.0436,0,0,0,0,0,0,0,0,0,0,0,0,0,0.0293,0.0294,0.0351,0.0351,0.0351,0.0386,0.0386,0.0387,0.0397,0.0397,0.0397,0.0396,0.0433,0.0434,0.0436,0,0,0,0,0,0,0,0,0,0,0,0,0,0.0322,0.0294,0.0351,0.0361,0.0362,0.0386,0.0386,0.0387,0.0397,0.0397,0.0397,0.0396,0.0433,0.0434,0.0436,0.0452,0,0,0.0441,0.0442,0,0,0,0,0,0,0,0,0.032,0.0324,0.0359,0.036,0.0361,0.0387,0.0379,0.0409,0.0397,0.0384,0.0396,0.0396,0.0418,0.0421,0.0428,0.0454,0.0456,0.0441,0.0443,0.0443,0.0444,0,0,0,0,0,0,0,0.0318,0.0323,0.0365,0.0359,0.0361,0.0364,0.0368,0.0385,0.0402,0.0385,0.0386,0.039,0.0419,0.0427,0.0429,0.0456,0.0441,0.0443,0.0444,0.0445,0.0497,0.0497,0,0,0,0,0,0,0.0314,0.0321,0.0363,0.0366,0.034,0.0365,0.0369,0.0379,0.0402,0.0405,0.039,0.039,0.0424,0.0427,0.0431,0.0451,0.0443,0.0445,0.0446,0.0497,0.0497,0.0498,0,0,0,0,0,0,0.0313,0.0318,0.0362,0.0343,0.0349,0.0366,0.0377,0.038,0.0388,0.0406,0.0409,0.0395,0.0424,0.0428,0.0447,0.0453,0.0446,0.0447,0.0496,0.0497,0.0497,0.0493,0,0,0,0,0,0,0.0311,0.0317,0.0324,0.0343,0.035,0.0378,0.0377,0.0381,0.039,0.0391,0.0411,0.0414,0.0424,0.0444,0.0449,0.0455,0.0449,0.0496,0.0497,0.0497,0.0493,0.0493,0.0494,0,0,0,0,0,0.0309,0.0322,0.0324,0.0329,0.0358,0.0378,0.0382,0.0392,0.0391,0.0398,0.0409,0.0414,0.0451,0.0446,0.0451,0.0458,0.0496,0.0496,0.0497,0.0493,0.0493,0.0494,0,0,0,0,0,0,0.0303,0.0324,0.0327,0.0346,0.036,0.038,0.0388,0.0393,0.0408,0.0408,0.042,0.0425,0.0442,0.0452,0.0446,0.0475,0.0474,0.0475,0.0468,0.0469,0.047,0.0467,0.045,0,0,0,0,0,0.0303,0.0317,0.0335,0.035,0.0357,0.0371,0.038,0.0387,0.0402,0.0408,0.0421,0.0435,0.0451,0.046,0.0475,0.0494,0.0499,0.0501,0.0502,0.0502,0.0504,0.0515,0.0516,0.05,0.05,0.05,0,0,0.0305,0.0319,0.0327,0.0349,0.0361,0.0375,0.0376,0.0391,0.0402,0.041,0.0429,0.0439,0.0456,0.0474,0.0483,0.0483,0.0509,0.0503,0.0503,0.0505,0.0515,0.0517,0.0518,0.0501,0.0501,0.0501,0,0,0.0316,0.0327,0.0341,0.0352,0.0369,0.0379,0.0382,0.04,0.0407,0.0426,0.0432,0.0445,0.0471,0.0483,0.0492,0.0506,0.0511,0.051,0.0514,0.0524,0.0525,0.0526,0.0532,0.0533,0.0512,0.0512,0.0512,0,0.0316,0.0337,0.0347,0.0362,0.0372,0.0379,0.0393,0.0404,0.0425,0.0432,0.0431,0.0463,0.0475,0.0497,0.05,0.0507,0.0512,0.0509,0.0524,0.0525,0.0527,0.0532,0.0534,0.0512,0.0512,0.0512,0.0512,0,0.0337,0.0351,0.036,0.038,0.0391,0.0405,0.0417,0.0427,0.0433,0.0442,0.0461,0.0475,0.0493,0.0499,0.0505,0.0521,0.052,0.0521,0.052,0.0528,0.0533,0.0535,0.0512,0.0512,0.0512,0.0512,0,0,0.0345,0.037,0.0373,0.0382,0.0401,0.0412,0.0427,0.0444,0.0452,0.0466,0.0479,0.05,0.0501,0.0512,0.0519,0.0527,0.0538,0.0528,0.0528,0.0529,0.0557,0.0556,0.0558,0.0541,0.0541,0.0541,0.0556,0,0.0359,0.0384,0.0393,0.0415,0.0428,0.0435,0.0448,0.0461,0.047,0.0483,0.0493,0.0508,0.0508,0.0514,0.0523,0.0535,0.0544,0.0534,0.0553,0.0553,0.0549,0.0561,0.056,0.0573,0.0558,0.0558,0.0558,0,0.0378,0.0392,0.0414,0.0431,0.0437,0.0448,0.0464,0.0476,0.0491,0.0497,0.0508,0.0515,0.053,0.0527,0.0549,0.0542,0.055,0.0556,0.0557,0.056,0.0557,0.0564,0.0577,0.0579,0.0561,0.0561,0.0561,0,0.0382,0.0406,0.0423,0.043,0.045,0.0458,0.0466,0.0481,0.049,0.0505,0.0511,0.0527,0.0535,0.0547,0.0558,0.0555,0.0578,0.0576,0.0584,0.0584,0.0589,0.0589,0.0604,0.0594,0.0593,0.0593,0.0593,0,0.0396,0.041,0.0425,0.0435,0.0451,0.0461,0.0476,0.0485,0.0498,0.051,0.0517,0.0528,0.0541,0.0554,0.0562,0.0579,0.0582,0.0588,0.059,0.0588,0.0587,0.0594,0.0593,0.0594,0.0594,0.0594,0.0594,0,0.0404,0.0415,0.0433,0.045,0.0455,0.0465,0.048,0.049,0.0499,0.0515,0.0519,0.0533,0.0549,0.056,0.058,0.0586,0.0603,0.0605,0.0598,0.06,0.0607,0.0606,0.0627,0.0631,0.0617,0.0617,0.0617,0,0.0413,0.0424,0.0441,0.045,0.0458,0.0472,0.0482,0.0492,0.0501,0.0519,0.0527,0.0543,0.0556,0.0581,0.0593,0.0608,0.0611,0.0617,0.0614,0.0611,0.0612,0.0611,0.0612,0.0618,0.0618,0.0618,0.0619,0,0.0428,0.0432,0.0445,0.046,0.0471,0.0484,0.0496,0.0503,0.0515,0.0526,0.0542,0.0552,0.0572,0.0588,0.0604,0.0614,0.0618,0.0619,0.0622,0.062,0.0616,0.0619,0.0601,0.0619,0.0619,0.0619,0.0619,0.0619,0.0437,0.0446,0.046,0.0475,0.0485,0.0496,0.0506,0.0516,0.0529,0.0547,0.0552,0.0568,0.0582,0.0605,0.0614,0.0627,0.0627,0.0631,0.0632,0.0633,0.0633,0.0613,0.063,0.063,0.063,0.063,0.063,0,0.0452,0.0461,0.0474,0.0491,0.0502,0.0505,0.0518,0.0528,0.0542,0.0555,0.0567,0.0585,0.0601,0.0614,0.0629,0.0637,0.064,0.0641,0.0641,0.0643,0.0632,0.0628,0.0639,0.0639,0.0639,0.0639,0.0639,0.0639,0.0461,0.0478,0.0484,0.0505,0.0514,0.053,0.0537,0.0548,0.0558,0.0578,0.059,0.0598,0.0611,0.0627,0.0641,0.0645,0.065,0.0651,0.0655,0.0645,0.0644,0.0643,0.064,0.0652,0.0652,0.0666,0.0666,0.0666]}]]